User: anonymous   Login
Location: Bucquoy
(50.1391°N, 2.7097°E)
Time: 15:01:10
(UTC+00:00)
Language:

COSMOS 2487 - Orbit

View from above orbital plane
View from above orbital plane
View from above satellite
View from above satellite

Ground track
Ground track

The orbit data is extracted from the following two-line orbital elements,

1 39194U 13032A   21208.08042772  .00005921  00000-0  12596-3 0  9991
2 39194  74.7081 281.7408 0003627 289.1403  70.9419 15.45143252452474
Epoch (UTC): 27 July 2021 01:55:48
Eccentricity: 0.0003627
inclination: 74.7081°
perigee height: 428 km
apogee height: 433 km
right ascension of ascending node: 281.7408°
argument of perigee: 289.1403°
revolutions per day: 15.45143252
mean anomaly at epoch: 70.9419°
orbit number at epoch: 45247

The dashed part of the orbit path shows where the satellite is in the earth's shadow,  

DLR